Regional Weather Roundup
Issued by NWS Goodland, KS

Home | Current Version | Previous Version | Text Only | Print | Product List | Glossary On
Versions: 1 2 3 4 5 6 7 8 9 10 11 12 13 14 15 16 17 18 19 20 21 22 23 24 25 26 27 28 29 30 31 32 33 34 35 36 37 38 39 40 41 42 43 44 45 46 47 48 49 50
682
ASUS43 KGLD 090208
RWRGLD

GOODLAND FORECAST AREA HOURLY WEATHER ROUNDUP
NATIONAL WEATHER SERVICE GOODLAND KS
700 PM MST MON FEB 08 2016

...OFFICIAL OBSERVATIONS...

CITY           SKY/WX    TMP DP  RH WIND       PRES   REMARKS
GOODLAND KS    CLEAR     27  22  81 W5        30.27S
HILL CITY KS   PTCLDY    30  19  63 W8        30.26F
IMPERIAL NEB   CLOUDY    30  19  63 NW9       30.25F
MCCOOK NEB     CLOUDY    31  20  63 W12       30.25S
AKRON CO       CLOUDY    37  28  70 NW21      30.29R
BURLINGTON CO  CLOUDY    31  23  72 NW14      30.28S
LIMON CO       CLOUDY    30  23  75 W8        30.33R
$$

...UNOFFICIAL OBSERVATIONS...

CITY           SKY/WX    TMP DP  RH WIND       PRES   REMARKS
COLBY KS       CLEAR     27  25  93 W10       30.28F WCI  17
GOVE KS          N/A     31  32 100 MISG        N/A
LENORA KS        N/A     32  32 100 MISG        N/A
NORTON KS      CLOUDY    30  16  55 W13       30.23S
SHARON SPRINGS   N/A     30  25  80 CALM        N/A
KIT CARSON CO    N/A     36  26  67 MISG        N/A
YUMA CO          N/A     35  30  82 NW10        N/A
$$




USA.gov is the U.S. government's official web portal to all federal, state and local government web resources and services.